sat.trackr.live / text

‹ back to catalog

OPS 5712 (P/L 160)

NORAD 2826 · 1967-053A

PAYLOAD ACTIVE UNKNOWN

§ Identity

Operator
Country
US
Launch date
1967-05-31
Launch site
AFWTR
Launch vehicle
Mass (kg)
RCS (m²)
0.40

Purposes: military

External: N2YO · Heavens-Above · Gunter

§ Orbital elements

Epoch: 2026-09-09T03:50:22.006752Z

Period
97.39 min
Inclination
69.9162°
Eccentricity
0.0004248
Mean motion
14.78656077 rev/d
Perigee alt
630.6 km
Apogee alt
636.5 km
Semi-major
7,011.7 km
B*
8.3248e-4
RAAN
192.3114°
Arg perigee
275.0478°
Mean anomaly
85.0185°
Rev number
7,864

§ Raw data

OPS 5712 (P/L 160)1 02826U 67053A   26252.15997693  .00006037  00000+0  83248-3 0  99982 02826  69.9162 192.3114 0004248 275.0478  85.0185 14.78656077 78648

JSON: /api/v1/satellites/2826 · /tle

For live sub-satellite position, see the globe view (requires WebGL).

§ Visibility from observer

Set your observer location to see the next 7 days of passes ≥ 10°. The values pass through the URL so the page stays shareable.

No JS? Fill the form by hand. The geolocation button needs JavaScript.